QPF
0.00 0.00 0.00 0.01 0.01 0.01 0.01 0.02 0.02 0.02 0.01 0.00 0.01 0.01 0.01 0.01 0.01 0.02 0.04 0.06 0.07 0.05 0.04 0.03 0.03 0.02 0.02 0.04 0.05 0.03 0.02 0.01 0.01 0.01 0.01 0.01 0.01 0.02 0.02 0.01 0.01 0.01 0.01 0.01
0.00 0.00 0.00 0.01 0.00 0.00 0.00 0.01 0.01 0.01 0.01 0.01 0.01 0.01 0.01 0.01 0.01 0.03 0.07 0.09 0.08 0.05 0.04 0.04 0.03 0.02 0.02 0.03 0.05 0.04 0.02 0.01 0.01 0.01 0.01 0.01 0.01 0.01 0.02 0.02 0.02 0.01 0.01 0.01
0.00 0.00 0.01 0.01 0.00 0.00 0.01 0.01 0.01 0.01 0.01 0.01 0.01 0.01 0.02 0.02 0.02 0.03 0.06 0.06 0.06 0.05 0.04 0.04 0.04 0.03 0.03 0.04 0.05 0.05 0.03 0.01 0.01 0.01 0.01 0.01 0.00 0.01 0.01 0.02 0.03 0.03 0.02 0.02
0.00 0.01 0.01 0.01 0.00 0.00 0.01 0.01 0.02 0.02 0.01 0.01 0.02 0.02 0.02 0.02 0.02 0.03 0.04 0.04 0.06 0.06 0.03 0.03 0.03 0.03 0.03 0.04 0.04 0.04 0.02 0.01 0.01 0.01 0.01 0.01 0.01 0.01 0.01 0.01 0.03 0.03 0.03 0.03
0.01 0.01 0.01 0.01 0.00 0.00 0.01 0.02 0.02 0.01 0.01 0.01 0.01 0.01 0.01 0.01 0.01 0.03 0.05 0.03 0.05 0.07 0.05 0.03 0.03 0.02 0.03 0.03 0.04 0.03 0.01 0.01 0.02 0.01 0.02 0.02 0.02 0.01 0.01 0.01 0.02 0.02 0.03 0.02
0.01 0.01 0.01 0.01 0.00 0.00 0.01 0.02 0.02 0.01 0.01 0.01 0.01 0.01 0.01 0.00 0.01 0.02 0.02 0.02 0.03 0.06 0.08 0.06 0.04 0.03 0.03 0.03 0.03 0.02 0.02 0.02 0.02 0.02 0.02 0.03 0.03 0.02 0.02 0.02 0.02 0.02 0.03 0.03
0.01 0.01 0.01 0.01 0.01 0.01 0.01 0.01 0.01 0.01 0.01 0.01 0.01 0.01 0.01 0.01 0.01 0.01 0.01 0.02 0.02 0.04 0.07 0.07 0.05 0.04 0.03 0.03 0.03 0.03 0.03 0.02 0.03 0.03 0.03 0.02 0.02 0.01 0.01 0.02 0.02 0.03 0.03 0.04
0.01 0.01 0.01 0.01 0.01 0.01 0.01 0.01 0.01 0.01 0.01 0.01 0.01 0.01 0.01 0.01 0.00 0.00 0.00 0.01 0.01 0.02 0.04 0.05 0.05 0.04 0.04 0.04 0.02 0.02 0.02 0.03 0.03 0.04 0.03 0.03 0.03 0.02 0.02 0.02 0.03 0.02 0.03 0.04
0.02 0.01 0.01 0.01 0.01 0.00 0.00 0.00 0.01 0.01 0.01 0.01 0.01 0.01 0.01 0.00 0.00 0.00 0.00 0.01 0.01 0.01 0.02 0.03 0.03 0.05 0.05 0.04 0.03 0.03 0.03 0.03 0.03 0.03 0.03 0.03 0.03 0.02 0.02 0.03 0.03 0.03 0.03 0.05
0.03 0.01 0.01 0.01 0.01 0.01 0.01 0.00 0.01 0.01 0.01 0.01 0.01 0.01 0.01 0.01 0.00 0.00 0.00 0.01 0.01 0.01 0.02 0.03 0.03 0.04 0.05 0.04 0.04 0.03 0.04 0.04 0.04 0.04 0.04 0.03 0.03 0.03 0.02 0.02 0.03 0.03 0.03 0.04
0.03 0.01 0.01 0.01 0.00 0.01 0.01 0.01 0.01 0.01 0.01 0.01 0.01 0.01 0.01 0.01 0.01 0.01 0.00 0.01 0.01 0.01 0.02 0.02 0.03 0.03 0.04 0.05 0.05 0.04 0.03 0.04 0.05 0.05 0.05 0.04 0.03 0.03 0.04 0.03 0.02 0.02 0.02 0.02
0.02 0.01 0.01 0.01 0.00 0.00 0.00 0.01 0.01 0.01 0.00 0.01 0.01 0.01 0.01 0.01 0.01 0.01 0.01 0.01 0.01 0.01 0.02 0.02 0.02 0.02 0.03 0.04 0.06 0.07 0.05 0.04 0.04 0.04 0.03 0.03 0.03 0.03 0.04 0.04 0.03 0.02 0.02 0.02
0.00 0.00 0.01 0.01 0.01 0.00 0.00 0.00 0.01 0.01 0.00 0.00 0.01 0.01 0.01 0.01 0.00 0.01 0.01 0.02 0.02 0.01 0.01 0.02 0.01 0.02 0.02 0.03 0.05 0.07 0.06 0.04 0.04 0.04 0.04 0.03 0.02 0.02 0.02 0.03 0.04 0.03 0.02 0.01
0.00 0.00 0.00 0.00 0.00 0.00 0.00 0.00 0.00 0.01 0.00 0.00 0.00 0.01 0.01 0.01 0.01 0.01 0.01 0.01 0.01 0.02 0.02 0.02 0.02 0.02 0.02 0.02 0.02 0.03 0.04 0.04 0.03 0.04 0.04 0.05 0.05 0.04 0.03 0.03 0.04 0.04 0.03 0.03
0.00 0.00 0.00 0.00 0.00 0.00 0.00 0.00 0.00 0.01 0.00 0.00 0.00 0.01 0.01 0.01 0.00 0.01 0.01 0.01 0.01 0.01 0.01 0.02 0.02 0.03 0.02 0.02 0.02 0.02 0.03 0.03 0.03 0.03 0.03 0.04 0.04 0.04 0.04 0.04 0.04 0.04 0.05 0.05
0.00 0.00 0.00 0.00 0.00 0.00 0.00 0.00 0.00 0.01 0.01 0.00 0.00 0.01 0.00 0.00 0.00 0.00 0.01 0.01 0.01 0.01 0.01 0.01 0.02 0.02 0.03 0.03 0.04 0.03 0.03 0.04 0.03 0.03 0.04 0.05 0.04 0.04 0.04 0.04 0.04 0.04 0.03 0.04
0.00 0.00 0.00 0.00 0.00 0.00 0.00 0.00 0.00 0.01 0.01 0.00 0.00 0.00 0.00 0.00 0.00 0.00 0.01 0.01 0.01 0.01 0.01 0.01 0.01 0.02 0.02 0.03 0.04 0.04 0.04 0.04 0.03 0.03 0.03 0.04 0.04 0.03 0.03 0.03 0.03 0.03 0.03 0.04
0.00 0.00 0.00 0.00 0.00 0.00 0.00 0.00 0.00 0.01 0.01 0.00 0.00 0.00 0.00 0.00 0.00 0.00 0.00 0.00 0.00 0.01 0.01 0.01 0.01 0.01 0.01 0.02 0.03 0.03 0.04 0.03 0.03 0.03 0.03 0.03 0.03 0.03 0.03 0.03 0.03 0.03 0.03 0.05
0.00 0.00 0.00 0.00 0.00 0.00 0.00 0.00 0.01 0.01 0.01 0.00 0.00 0.00 0.00 0.00 0.00 0.00 0.00 0.00 0.00 0.01 0.01 0.01 0.01 0.01 0.01 0.01 0.01 0.02 0.02 0.02 0.02 0.02 0.03 0.03 0.03 0.03 0.03 0.03 0.04 0.04 0.04 0.04
0.01 0.00 0.00 0.00 0.00 0.00 0.00 0.00 0.01 0.01 0.01 0.01 0.00 0.00 0.00 0.00 0.00 0.00 0.00 0.00 0.00 0.01 0.00 0.00 0.01 0.01 0.01 0.01 0.01 0.01 0.02 0.02 0.03 0.03 0.03 0.02 0.02 0.02 0.03 0.03 0.04 0.04 0.05 0.04
0.01 0.01 0.01 0.00 0.00 0.00 0.00 0.01 0.01 0.01 0.01 0.00 0.00 0.00 0.00 0.00 0.00 0.00 0.00 0.00 0.00 0.00 0.00 0.00 0.00 0.00 0.01 0.01 0.01 0.01 0.02 0.03 0.03 0.03 0.03 0.03 0.02 0.02 0.01 0.02 0.03 0.04 0.04 0.04
0.00 0.00 0.00 0.00 0.00 0.00 0.00 0.01 0.01 0.01 0.01 0.00 0.00 0.00 0.00 0.00 0.00 0.00 0.00 0.00 0.00 0.00 0.00 0.00 0.00 0.00 0.01 0.01 0.02 0.02 0.02 0.02 0.02 0.02 0.03 0.03 0.02 0.02 0.01 0.01 0.01 0.01 0.02 0.02
0.00 0.00 0.00 0.00 0.00 0.00 0.01 0.01 0.01 0.01 0.00 0.00 0.00 0.00 0.01 0.00 0.00 0.00 0.00 0.00 0.00 0.00 0.00 0.00 0.00 0.00 0.01 0.01 0.02 0.02 0.02 0.02 0.02 0.02 0.02 0.02 0.02 0.02 0.02 0.02 0.01 0.01 0.01 0.01
0.00 0.01 0.01 0.01 0.00 0.01 0.01 0.01 0.01 0.01 0.00 0.00 0.00 0.01 0.01 0.00 0.00 0.00 0.00 0.00 0.00 0.00 0.00 0.00 0.00 0.00 0.01 0.01 0.01 0.02 0.02 0.02 0.02 0.02 0.02 0.02 0.02 0.02 0.02 0.02 0.01 0.01 0.01 0.01
0.00 0.00 0.00 0.00 0.00 0.00 0.01 0.01 0.01 0.01 0.01 0.01 0.01 0.01 0.01 0.00 0.00 0.00 0.00 0.00 0.00 0.00 0.00 0.00 0.00 0.00 0.00 0.00 0.01 0.02 0.02 0.03 0.03 0.02 0.02 0.02 0.02 0.02 0.02 0.02 0.01 0.01 0.01 0.01
0.01 0.00 0.00 0.00 0.00 0.00 0.00 0.01 0.01 0.01 0.01 0.01 0.01 0.01 0.01 0.00 0.00 0.00 0.00 0.00 0.00 0.00 0.00 0.00 0.00 0.00 0.00 0.00 0.01 0.01 0.02 0.02 0.03 0.03 0.03 0.03 0.02 0.02 0.02 0.02 0.01 0.01 0.01 0.01
0.02 0.01 0.00 0.00 0.00 0.00 0.00 0.01 0.01 0.01 0.01 0.01 0.02 0.02 0.01 0.01 0.00 0.00 0.00 0.00 0.00 0.00 0.00 0.00 0.00 0.00 0.01 0.01 0.01 0.01 0.01 0.01 0.02 0.03 0.03 0.03 0.03 0.03 0.02 0.02 0.02 0.02 0.02 0.02
MSLP
1014.36 1014.73 1015.22 1015.82 1016.51 1017.24 1017.96 1018.62 1019.16 1019.55 1019.77 1019.80 1019.68 1019.44 1019.12 1018.76 1018.40 1018.05 1017.73 1017.43 1017.13 1016.81 1016.46 1016.06 1015.61 1015.11 1014.57 1014.01 1013.44 1012.87 1012.32 1011.81 1011.34 1010.93 1010.59 1010.34 1010.17 1010.11 1010.16 1010.29 1010.52 1010.80 1011.11 1011.43
1014.76 1015.15 1015.63 1016.18 1016.78 1017.41 1018.03 1018.60 1019.08 1019.45 1019.68 1019.76 1019.72 1019.56 1019.33 1019.04 1018.72 1018.39 1018.06 1017.74 1017.41 1017.07 1016.70 1016.31 1015.88 1015.40 1014.88 1014.31 1013.71 1013.09 1012.44 1011.80 1011.17 1010.58 1010.05 1009.61 1009.27 1009.07 1008.99 1009.04 1009.21 1009.48 1009.80 1010.15
1015.31 1015.75 1016.24 1016.76 1017.31 1017.85 1018.37 1018.84 1019.23 1019.52 1019.71 1019.78 1019.75 1019.61 1019.40 1019.12 1018.81 1018.47 1018.12 1017.77 1017.42 1017.07 1016.71 1016.33 1015.93 1015.50 1015.02 1014.48 1013.89 1013.24 1012.55 1011.81 1011.06 1010.32 1009.63 1009.02 1008.51 1008.15 1007.93 1007.87 1007.95 1008.15 1008.44 1008.79
1015.95 1016.46 1016.98 1017.51 1018.02 1018.50 1018.92 1019.29 1019.58 1019.78 1019.89 1019.91 1019.82 1019.66 1019.42 1019.12 1018.78 1018.41 1018.03 1017.64 1017.26 1016.89 1016.54 1016.18 1015.81 1015.42 1015.00 1014.51 1013.95 1013.32 1012.61 1011.83 1011.00 1010.16 1009.34 1008.58 1007.92 1007.40 1007.03 1006.82 1006.78 1006.88 1007.10 1007.40
1016.61 1017.18 1017.75 1018.29 1018.78 1019.22 1019.58 1019.86 1020.06 1020.17 1020.19 1020.12 1019.97 1019.75 1019.46 1019.12 1018.73 1018.32 1017.89 1017.46 1017.05 1016.65 1016.28 1015.93 1015.58 1015.23 1014.85 1014.41 1013.90 1013.30 1012.61 1011.83 1010.97 1010.07 1009.15 1008.28 1007.48 1006.81 1006.28 1005.91 1005.72 1005.68 1005.79 1006.01
1017.20 1017.81 1018.41 1018.97 1019.47 1019.88 1020.20 1020.42 1020.54 1020.57 1020.52 1020.38 1020.17 1019.89 1019.56 1019.17 1018.74 1018.28 1017.81 1017.33 1016.87 1016.44 1016.04 1015.66 1015.32 1014.98 1014.62 1014.23 1013.76 1013.21 1012.55 1011.79 1010.93 1010.00 1009.02 1008.06 1007.14 1006.32 1005.63 1005.10 1004.74 1004.55 1004.52 1004.63
1017.64 1018.27 1018.89 1019.46 1019.96 1020.36 1020.65 1020.84 1020.91 1020.89 1020.79 1020.61 1020.36 1020.05 1019.69 1019.27 1018.81 1018.32 1017.81 1017.30 1016.79 1016.31 1015.86 1015.45 1015.08 1014.73 1014.38 1014.00 1013.57 1013.05 1012.43 1011.69 1010.83 1009.88 1008.86 1007.82 1006.80 1005.84 1004.99 1004.29 1003.75 1003.40 1003.22 1003.21
1017.91 1018.52 1019.12 1019.69 1020.18 1020.58 1020.86 1021.03 1021.09 1021.05 1020.93 1020.74 1020.48 1020.17 1019.81 1019.40 1018.94 1018.44 1017.91 1017.36 1016.82 1016.29 1015.79 1015.33 1014.91 1014.53 1014.16 1013.77 1013.34 1012.84 1012.22 1011.49 1010.63 1009.65 1008.58 1007.45 1006.32 1005.23 1004.22 1003.35 1002.65 1002.14 1001.83 1001.71
1017.98 1018.54 1019.11 1019.65 1020.13 1020.51 1020.79 1020.96 1021.02 1021.00 1020.89 1020.72 1020.49 1020.21 1019.88 1019.50 1019.07 1018.58 1018.05 1017.50 1016.92 1016.35 1015.80 1015.29 1014.82 1014.38 1013.96 1013.54 1013.08 1012.55 1011.92 1011.16 1010.26 1009.23 1008.08 1006.86 1005.60 1004.37 1003.21 1002.19 1001.33 1000.69 1000.27 1000.07
1017.89 1018.38 1018.89 1019.39 1019.84 1020.20 1020.48 1020.65 1020.73 1020.73 1020.66 1020.53 1020.35 1020.13 1019.85 1019.52 1019.14 1018.69 1018.19 1017.64 1017.06 1016.46 1015.87 1015.30 1014.77 1014.27 1013.79 1013.30 1012.78 1012.19 1011.49 1010.66 1009.69 1008.56 1007.31 1005.96 1004.57 1003.19 1001.89 1000.73 999.75 999.00 998.51 998.27
1017.69 1018.09 1018.53 1018.97 1019.38 1019.73 1020.00 1020.18 1020.28 1020.31 1020.28 1020.20 1020.08 1019.91 1019.70 1019.44 1019.11 1018.72 1018.25 1017.72 1017.15 1016.54 1015.92 1015.31 1014.72 1014.15 1013.60 1013.03 1012.42 1011.73 1010.93 1009.99 1008.89 1007.64 1006.25 1004.76 1003.22 1001.70 1000.27 999.00 997.93 997.12 996.61 996.38
1017.42 1017.74 1018.11 1018.50 1018.86 1019.19 1019.44 1019.63 1019.74 1019.80 1019.81 1019.77 1019.70 1019.60 1019.44 1019.24 1018.96 1018.62 1018.20 1017.70 1017.13 1016.53 1015.89 1015.25 1014.61 1013.98 1013.35 1012.68 1011.97 1011.16 1010.24 1009.16 1007.92 1006.51 1004.97 1003.33 1001.65 1000.01 998.47 997.12 996.01 995.19 994.69 994.52
1017.14 1017.39 1017.70 1018.04 1018.37 1018.66 1018.91 1019.09 1019.22 1019.29 1019.32 1019.32 1019.28 1019.21 1019.10 1018.93 1018.70 1018.39 1018.00 1017.52 1016.98 1016.38 1015.74 1015.08 1014.40 1013.71 1013.00 1012.25 1011.43 1010.51 1009.45 1008.23 1006.84 1005.29 1003.60 1001.83 1000.04 998.30 996.70 995.32 994.20 993.41 992.98 992.90
1016.86 1017.07 1017.34 1017.65 1017.95 1018.23 1018.46 1018.64 1018.77 1018.84 1018.88 1018.89 1018.86 1018.80 1018.71 1018.55 1018.33 1018.04 1017.66 1017.20 1016.67 1016.07 1015.43 1014.75 1014.05 1013.32 1012.56 1011.73 1010.82 1009.80 1008.63 1007.29 1005.79 1004.12 1002.34 1000.48 998.62 996.84 995.23 993.85 992.78 992.06 991.72 991.75
1016.60 1016.80 1017.07 1017.36 1017.65 1017.92 1018.15 1018.32 1018.44 1018.51 1018.54 1018.53 1018.49 1018.42 1018.30 1018.13 1017.90 1017.60 1017.21 1016.75 1016.21 1015.62 1014.97 1014.29 1013.57 1012.82 1012.02 1011.15 1010.18 1009.10 1007.86 1006.46 1004.89 1003.18 1001.35 999.47 997.61 995.86 994.29 992.98 991.99 991.37 991.14 991.27
1016.38 1016.60 1016.87 1017.18 1017.48 1017.74 1017.96 1018.12 1018.23 1018.28 1018.29 1018.25 1018.18 1018.07 1017.91 1017.71 1017.44 1017.10 1016.69 1016.21 1015.66 1015.06 1014.41 1013.72 1013.00 1012.24 1011.44 1010.56 1009.58 1008.48 1007.24 1005.84 1004.28 1002.59 1000.81 998.99 997.21 995.54 994.08 992.88 992.01 991.50 991.38 991.62
1016.18 1016.44 1016.75 1017.08 1017.40 1017.67 1017.89 1018.04 1018.13 1018.15 1018.12 1018.05 1017.93 1017.76 1017.56 1017.30 1016.98 1016.59 1016.15 1015.64 1015.07 1014.45 1013.80 1013.12 1012.41 1011.66 1010.88 1010.02 1009.08 1008.03 1006.84 1005.51 1004.05 1002.47 1000.81 999.13 997.50 996.00 994.69 993.64 992.92 992.53 992.50 992.81
1016.02 1016.34 1016.70 1017.07 1017.40 1017.68 1017.89 1018.03 1018.09 1018.08 1018.01 1017.89 1017.72 1017.50 1017.23 1016.92 1016.55 1016.12 1015.63 1015.09 1014.50 1013.88 1013.23 1012.56 1011.87 1011.16 1010.42 1009.63 1008.76 1007.80 1006.73 1005.54 1004.24 1002.84 1001.37 999.90 998.49 997.19 996.08 995.22 994.64 994.37 994.42 994.77
1015.90 1016.29 1016.70 1017.10 1017.45 1017.73 1017.93 1018.04 1018.08 1018.03 1017.92 1017.75 1017.53 1017.26 1016.94 1016.58 1016.16 1015.70 1015.19 1014.63 1014.03 1013.41 1012.77 1012.13 1011.48 1010.82 1010.15 1009.44 1008.69 1007.86 1006.94 1005.94 1004.84 1003.67 1002.45 1001.24 1000.08 999.02 998.13 997.46 997.03 996.86 996.96 997.31
1015.84 1016.30 1016.75 1017.17 1017.52 1017.79 1017.96 1018.04 1018.04 1017.95 1017.80 1017.59 1017.33 1017.02 1016.68 1016.28 1015.85 1015.37 1014.85 1014.29 1013.71 1013.11 1012.50 1011.90 1011.30 1010.71 1010.12 1009.51 1008.88 1008.20 1007.46 1006.65 1005.78 1004.86 1003.91 1002.97 1002.07 1001.27 1000.60 1000.10 999.80 999.72 999.85 1000.17
1015.85 1016.35 1016.83 1017.24 1017.58 1017.82 1017.96 1018.00 1017.95 1017.82 1017.64 1017.39 1017.11 1016.79 1016.43 1016.04 1015.61 1015.14 1014.64 1014.12 1013.57 1013.01 1012.45 1011.90 1011.37 1010.85 1010.35 1009.84 1009.33 1008.80 1008.23 1007.63 1006.98 1006.30 1005.60 1004.91 1004.26 1003.69 1003.22 1002.88 1002.70 1002.67 1002.81 1003.09
1015.92 1016.44 1016.91 1017.31 1017.62 1017.81 1017.90 1017.89 1017.80 1017.64 1017.42 1017.16 1016.86 1016.54 1016.20 1015.83 1015.44 1015.01 1014.56 1014.09 1013.61 1013.11 1012.62 1012.14 1011.68 1011.24 1010.82 1010.42 1010.02 1009.62 1009.21 1008.77 1008.32 1007.84 1007.36 1006.89 1006.46 1006.08 1005.77 1005.57 1005.47 1005.48 1005.61 1005.84
1016.02 1016.54 1016.99 1017.35 1017.60 1017.74 1017.78 1017.72 1017.59 1017.39 1017.15 1016.89 1016.60 1016.30 1016.00 1015.67 1015.33 1014.98 1014.60 1014.21 1013.80 1013.39 1012.98 1012.59 1012.21 1011.85 1011.51 1011.19 1010.89 1010.60 1010.30 1010.00 1009.70 1009.39 1009.08 1008.78 1008.51 1008.28 1008.10 1007.99 1007.95 1007.99 1008.09 1008.26
1016.12 1016.61 1017.02 1017.32 1017.52 1017.60 1017.58 1017.48 1017.32 1017.10 1016.86 1016.60 1016.34 1016.08 1015.82 1015.56 1015.29 1015.02 1014.73 1014.43 1014.12 1013.80 1013.49 1013.18 1012.88 1012.60 1012.34 1012.10 1011.87 1011.66 1011.45 1011.25 1011.05 1010.85 1010.66 1010.48 1010.32 1010.19 1010.09 1010.04 1010.04 1010.08 1010.16 1010.28
1016.17 1016.61 1016.96 1017.21 1017.35 1017.38 1017.32 1017.20 1017.01 1016.80 1016.56 1016.33 1016.10 1015.89 1015.68 1015.49 1015.30 1015.11 1014.92 1014.71 1014.50 1014.28 1014.06 1013.84 1013.62 1013.42 1013.22 1013.05 1012.88 1012.73 1012.58 1012.44 1012.30 1012.17 1012.05 1011.94 1011.84 1011.77 1011.73 1011.71 1011.72 1011.75 1011.81 1011.88
1016.10 1016.49 1016.78 1016.98 1017.08 1017.08 1017.00 1016.87 1016.69 1016.49 1016.28 1016.08 1015.90 1015.73 1015.59 1015.46 1015.35 1015.23 1015.12 1015.01 1014.88 1014.76 1014.62 1014.49 1014.35 1014.22 1014.09 1013.97 1013.85 1013.74 1013.63 1013.53 1013.42 1013.33 1013.24 1013.16 1013.09 1013.04 1013.01 1012.99 1013.00 1013.01 1013.04 1013.07
1015.88 1016.21 1016.46 1016.63 1016.70 1016.70 1016.63 1016.51 1016.36 1016.19 1016.03 1015.87 1015.74 1015.63 1015.53 1015.46 1015.40 1015.36 1015.31 1015.27 1015.22 1015.17 1015.12 1015.06 1015.00 1014.93 1014.86 1014.79 1014.72 1014.64 1014.56 1014.47 1014.39 1014.30 1014.22 1014.14 1014.07 1014.01 1013.97 1013.94 1013.93 1013.92 1013.91 1013.91
Thickness
5667 5673 5674 5672 5672 5673 5666 5659 5651 5654 5656 5662 5666 5668 5670 5672 5673 5674 5674 5673 5673 5673 5674 5674 5674 5674 5674 5674 5674 5673 5671 5670 5669 5669 5668 5667 5665 5665 5664 5663 5662 5660 5659 5657
5660 5669 5669 5666 5668 5668 5665 5663 5658 5655 5654 5664 5665 5663 5664 5664 5665 5665 5665 5666 5667 5667 5668 5667 5667 5667 5668 5668 5668 5667 5666 5665 5664 5664 5663 5662 5661 5660 5659 5658 5657 5656 5654 5652
5641 5653 5656 5650 5660 5662 5660 5660 5657 5650 5654 5658 5656 5657 5657 5658 5659 5659 5659 5660 5661 5661 5661 5661 5662 5662 5662 5662 5662 5661 5659 5659 5658 5658 5657 5657 5656 5654 5653 5652 5651 5650 5649 5647
5631 5639 5632 5650 5665 5664 5657 5656 5657 5656 5655 5655 5654 5654 5655 5655 5653 5652 5653 5653 5654 5654 5655 5656 5656 5656 5657 5656 5656 5654 5653 5652 5652 5652 5651 5650 5649 5648 5647 5646 5645 5644 5643 5642
5620 5622 5630 5646 5658 5657 5649 5644 5651 5648 5647 5647 5647 5645 5644 5648 5648 5647 5647 5648 5648 5649 5650 5651 5651 5651 5650 5649 5648 5648 5647 5646 5646 5645 5644 5643 5642 5642 5641 5640 5639 5638 5637 5636
5615 5616 5617 5639 5654 5658 5647 5633 5644 5643 5640 5638 5637 5626 5630 5639 5641 5642 5642 5642 5642 5643 5643 5643 5644 5644 5643 5642 5641 5641 5641 5641 5641 5640 5638 5638 5637 5636 5636 5635 5634 5633 5631 5630
5609 5608 5619 5639 5648 5647 5625 5627 5638 5637 5635 5632 5627 5625 5629 5633 5633 5634 5635 5636 5636 5635 5635 5635 5636 5637 5635 5634 5634 5636 5636 5635 5634 5633 5633 5632 5632 5631 5630 5629 5627 5626 5625 5624
5604 5602 5613 5637 5636 5629 5626 5631 5632 5630 5629 5626 5624 5625 5625 5625 5625 5626 5626 5628 5628 5627 5627 5628 5628 5628 5627 5626 5628 5629 5629 5628 5627 5626 5627 5626 5624 5624 5623 5622 5619 5618 5616 5616
5610 5613 5625 5630 5630 5630 5628 5625 5624 5622 5622 5620 5618 5617 5617 5617 5617 5617 5618 5618 5619 5619 5618 5619 5619 5620 5618 5619 5621 5621 5620 5619 5619 5619 5618 5618 5617 5615 5614 5613 5612 5611 5609 5608
5605 5612 5619 5621 5622 5623 5623 5621 5620 5618 5616 5614 5611 5610 5609 5608 5608 5608 5609 5609 5609 5609 5609 5609 5609 5610 5611 5612 5612 5611 5611 5610 5610 5609 5609 5609 5609 5608 5607 5605 5604 5603 5602 5602
5599 5605 5608 5612 5613 5614 5614 5614 5612 5611 5610 5607 5605 5603 5602 5600 5600 5599 5600 5599 5599 5599 5599 5599 5600 5600 5601 5602 5602 5601 5600 5601 5600 5599 5599 5598 5598 5598 5599 5600 5599 5598 5597 5596
5595 5602 5599 5601 5606 5608 5606 5605 5604 5602 5601 5600 5598 5596 5594 5592 5592 5591 5590 5590 5590 5589 5589 5589 5590 5590 5590 5591 5592 5591 5590 5590 5589 5589 5588 5588 5587 5588 5590 5591 5591 5591 5591 5589
5601 5603 5600 5600 5600 5601 5600 5599 5598 5596 5594 5591 5590 5589 5587 5584 5583 5583 5582 5581 5580 5580 5580 5581 5581 5580 5581 5581 5581 5581 5581 5580 5579 5579 5579 5578 5578 5578 5579 5581 5581 5581 5580 5580
5599 5596 5592 5593 5592 5593 5593 5592 5590 5588 5587 5585 5582 5581 5579 5576 5575 5574 5573 5573 5572 5572 5572 5572 5572 5571 5572 5572 5571 5571 5571 5571 5570 5569 5569 5568 5568 5569 5569 5570 5570 5569 5570 5570
5593 5592 5589 5589 5587 5586 5585 5582 5579 5578 5577 5576 5574 5572 5570 5568 5566 5566 5565 5565 5564 5564 5564 5564 5563 5563 5563 5563 5562 5561 5561 5560 5560 5559 5559 5559 5559 5559 5559 5559 5559 5558 5557 5558
5586 5585 5583 5581 5579 5578 5576 5574 5571 5570 5569 5568 5565 5563 5562 5561 5559 5558 5557 5557 5555 5554 5554 5554 5554 5554 5554 5554 5552 5551 5550 5551 5551 5549 5548 5547 5547 5548 5548 5547 5547 5547 5547 5547
5575 5574 5573 5572 5571 5570 5569 5567 5565 5564 5562 5560 5558 5556 5554 5552 5550 5549 5548 5548 5548 5547 5547 5546 5545 5546 5546 5545 5543 5541 5540 5540 5540 5539 5537 5537 5537 5537 5537 5536 5536 5536 5536 5536
5574 5573 5570 5568 5565 5563 5561 5560 5558 5557 5555 5553 5551 5548 5545 5542 5541 5540 5539 5539 5539 5538 5538 5538 5538 5537 5536 5535 5534 5532 5530 5529 5529 5528 5527 5527 5527 5526 5526 5525 5525 5525 5525 5525
5566 5565 5563 5561 5559 5556 5553 5552 5551 5549 5547 5545 5542 5539 5536 5535 5533 5532 5531 5530 5529 5529 5530 5530 5531 5529 5527 5526 5525 5523 5521 5520 5519 5518 5517 5517 5517 5516 5515 5515 5515 5514 5514 5514
5556 5556 5554 5553 5551 5549 5547 5545 5543 5541 5539 5537 5534 5530 5528 5526 5525 5524 5522 5521 5521 5522 5523 5522 5521 5519 5519 5518 5517 5514 5512 5511 5509 5508 5507 5506 5506 5506 5505 5505 5505 5504 5504 5503
5547 5546 5545 5543 5542 5541 5539 5537 5535 5532 5530 5528 5525 5522 5520 5519 5517 5516 5514 5513 5514 5515 5514 5514 5512 5511 5510 5510 5509 5506 5504 5502 5500 5499 5498 5497 5496 5496 5495 5495 5495 5495 5495 5494
5537 5536 5535 5533 5532 5530 5529 5528 5526 5524 5521 5519 5517 5514 5512 5510 5509 5508 5507 5506 5507 5508 5506 5505 5504 5504 5503 5502 5499 5497 5495 5493 5491 5490 5489 5488 5487 5487 5486 5486 5486 5486 5486 5485
5525 5525 5524 5523 5522 5520 5519 5518 5516 5514 5512 5510 5508 5506 5504 5502 5501 5500 5499 5499 5499 5500 5498 5497 5497 5497 5496 5493 5491 5489 5487 5485 5483 5482 5481 5481 5480 5479 5478 5478 5478 5477 5477 5476
5515 5515 5514 5513 5512 5510 5508 5508 5506 5505 5503 5502 5501 5499 5497 5494 5493 5493 5492 5493 5493 5492 5490 5489 5489 5488 5487 5483 5482 5480 5478 5477 5476 5475 5474 5473 5472 5471 5470 5470 5469 5469 5468 5468
5506 5505 5504 5503 5501 5500 5499 5498 5496 5495 5493 5491 5491 5490 5489 5487 5485 5485 5484 5483 5483 5482 5480 5480 5480 5479 5476 5474 5473 5472 5471 5470 5469 5468 5467 5466 5465 5464 5463 5462 5461 5461 5460 5459
5496 5495 5495 5494 5493 5492 5490 5488 5486 5485 5483 5482 5481 5480 5480 5479 5477 5476 5474 5474 5473 5472 5470 5469 5468 5468 5467 5465 5465 5464 5463 5463 5462 5461 5460 5459 5458 5457 5456 5455 5454 5453 5452 5452
5486 5486 5485 5484 5484 5483 5482 5479 5477 5476 5475 5474 5472 5471 5470 5469 5468 5467 5466 5464 5463 5462 5461 5459 5458 5457 5457 5456 5456 5455 5455 5455 5454 5453 5452 5452 5451 5449 5449 5448 5447 5446 5445 5445